Discarica di Monteschiantello Fano (PU) (lat. 43.789272 - lon. 13.063131) Ora solare
Ultimo aggiornamento: 16/07/2019 06:15:50

Temperatura (°C) - Valori minimi, medi e massimi delle ultime 72 ore


Precipitazione totale (mm) - Valori delle ultime 72 ore


Velocità del vento (m/s) - Valori minimi, medi e massimi delle ultime 72 ore


Ultimi valori disponibili

GrandezzaUltimo valore rilevatoTrendData rilevamento
Temperatura med. (°C)16,50 16/07/2019 05:00:00
Temperatura min. (°C)16,38 16/07/2019 05:00:00
Temperatura max. (°C)16,67 16/07/2019 05:00:00
Umidità relativa med. (%)95,55 16/07/2019 05:00:00
Umidità relativa min. (%)94,09 16/07/2019 05:00:00
Umidità relativa max. (%)96,64 16/07/2019 05:00:00
Pressione atmosferica med. (hPa)999,57 16/07/2019 05:00:00
Radiazione netta med. (W/m^2)200,20 16/07/2019 05:00:00
Radiazione netta min. (W/m^2)-23,34 16/07/2019 05:00:00
Radiazione netta max. (W/m^2)392,48 16/07/2019 05:00:00
Velocità vento med. (m/s)3,93 16/07/2019 05:00:00
Velocità vento min. (m/s)1,94 16/07/2019 05:00:00
Velocità vento max. (m/s)6,28 16/07/2019 05:00:00
Direzione vento (gradi)306,91 16/07/2019 05:00:00
Precipitazione totale (mm)0,00 16/07/2019 05:00:00
Contenuto idrico terreno Med. (%)21,57 16/07/2019 05:00:00
Contenuto idrico terreno Min. (%)20,35 16/07/2019 05:00:00
Contenuto idrico terreno Max. (%)23,30 16/07/2019 05:00:00
Radiazione globale med. (W/m^2)2,85 16/07/2019 05:00:00
Radiazione globale min. (W/m^2)0,00 16/07/2019 05:00:00
Radiazione globale max. (W/m^2)12,69 16/07/2019 05:00:00
Temperatura suolo med. (°C)17,07 16/07/2019 05:00:00
Temperatura suolo min. (°C)16,94 16/07/2019 05:00:00
Temperatura suolo max. (°C)17,14 16/07/2019 05:00:00

Caricamento in corso...

..

...